Simultaneous Nadir Overpasses (SNOs) Predictions

Prediction of SNOs between GOES-16 and METOP-C Satellite Orbit:

Table of predicted SNOs for the next 14.0 days since TLE Epoch: 1/16/2021
Index Date Time (GOES-16) GOES-16 Lat,Lon METOP-C Lat,Lon Distance(km) Time Diff (sec)
1 01/16/2021 14:43:32 0.01, -75.21 0.65, -78.15 334.59 80
2 01/17/2021 14:25:33 0.01, -75.21 -0.44, -73.15 235.47 80
3 01/19/2021 02:44:34 -0.02, -75.20 -0.60, -77.74 289.97 80
4 01/20/2021 02:21:15 -0.02, -75.21 0.55, -72.76 280.29 80
5 01/21/2021 14:40:07 0.01, -75.26 0.45, -77.32 234.36 80
6 01/22/2021 14:22:07 0.00, -75.27 -0.64, -72.32 336.03 80
7 01/24/2021 02:41:09 0.00, -75.26 -0.34, -76.93 188.77 80
8 01/25/2021 02:17:50 0.00, -75.28 0.76, -71.93 381.89 80
9 01/26/2021 14:36:41 -0.00, -75.33 0.25, -76.49 132.17 80
10 01/27/2021 14:18:42 -0.00, -75.34 -0.85, -71.49 438.73 80
11 01/29/2021 02:37:43 0.00, -75.34 -0.18, -76.09 85.15 80
12 01/30/2021 02:14:25 0.00, -75.36 0.98, -71.10 485.96 80
